Showing default

EUTE 21B, 38992

Orbit data source: Space-Track

EUTE 21B, 38992 is a payload satellite owned by EutelsatSA (FR) in GEO that was launched on Sat, 10 Nov 2012 UTC via an ARIANE 5ECA launch vehicle from the French Guiana (FRGUI). Payloads include a variety of satellites, spacecraft, and rockets equipped with specific instruments for various scientific and technological missions. These include communications satellites like Starlink; space stations such as the ISS; scientific satellites like the Hubble; Earth observation satellites from companies like Planet Labs, Umbra, and HawkEye 360; GPS; miniature CubeSats for education and research; and military/defense satellites.

Not visible in the next 10 days
EUTE 21B details
Identifier
38992, 2012-062B
Orbit
GEO
Last TLE update1 day ago
Origin
Flag of FREutelsatSA (FR / EUTE)
ManufacturerThales Alenia
MissionOperational Commercial Communications
Bus & MotorSPACEBUS 4000C3, S400
Mass5,012 kg wet, 2,060 kg dry
Launch date (UTC)
2012-11-10 (12 years ago)
Launch vehicle
ARIANE 5ECA
Launch site
French Guiana (FRGUI)
Object type
Payload
Rocket body
Debris
Shape & HBRBox + 2 Pan, 37 m
Radar Cross Section34.184 m², Large (>1 m²)

Expand to show TLE details & history

TLE from 1 day ago
0 EUTE 21B
1 38992U 12062B   25037.33108454  .00000130  00000-0  00000-0 0  9991
2 38992   0.0688 348.9677 0003015 337.5045 311.0185  1.00275018 44859
Epoch: 2025-02-06T07:56Z
Definitive object data (Epoch: 2025-02-06T07:56:45.704Z)
Latitude-0.06713°
Longitude21.59353°
Altitude35,776.79 km
Speed3.075 km/s
True Right ascension18h 29m 58s
True Declination0° 04' 01"
Sunlit
Object was in daylight at TLE epoch
Visualization TLE readout
Latitude0.00759°
Longitude116.40495°
Altitude35,776.148 km
Speed3.075 km/s
Apparent Right ascension01h 09m 06s
Apparent Declination-5° 07' 58"
Sunlit
Object is in daylight
Visualization observer readout
Local Sidereal Time16:22:05
Azimuth64.337° ENE
Elevation-34.482°
Doppler factor1
Orbital elements
Apogee altitude35,799.472 km
Perigee altitude35,774.046 km
Semi-major axis42,164.896 km
Eccentricity0.0003015
Inclination0.0688°
RAAN348.9677°
Arg. of periapsis337.5045°
True anomaly310.99243°
Mean anomaly311.0185°
Eccentric anomaly311.00546°
Mean motion0.25068 °/min
BSTARUnknown
Orbital period1436.1 mins
Loading historical data...
38992 neighbors
Authenticating...
Loading maneuver chart data...
Loading historical data...
Loading historical data...
Loading historical data...
Loading historical data...
Loading historical data...
Loading historical data...
Loading historical data...
Other satellites on launch #62 in the year 2012 (2012-11-10 UTC)

EUTE 21B Visibility forecast

Observer location: undefined°, undefined

EUTE 21B is not visible in the next 10 days
Span
Click to sort rows by Start time (UTC) header in descending order
Start Az.
Max El. time (UTC)
Max El. Az.
Max El.
End time (UTC)
End Az.
|